Fort Lewis, WA
on Tuesday, January 15, 2013

Tuesday
Previous Day Next Day
Daily Summary
 ActualAverage (KOLM)Record (KOLM)
Temperature
Mean Temperature °F 40°F  
Max Temperature 42°F 46°F 58°F (1974)
Min Temperature 25°F 34°F 15°F (2007)
Degree Days
Heating Degree Days 32 25  
Month to date heating degree days 385  
Since 1 July heating degree days 2655  
Cooling Degree Days 0 0  
Month to date cooling degree days 0  
Year to date cooling degree days 0  
Moisture
Dew Point 31°F   
Average Humidity 90    
Maximum Humidity 100    
Minimum Humidity 66    
Precipitation
Precipitation 0.03 in 0.27 in 1.60 in (1961)
Month to date precipitation 3.89  
Year to date precipitation 3.89  
Wind
Wind Speed 4 mph   
Max Wind Speed 10 mph   
Max Gust Speed mph   
Visibility 10 miles   
Events     

Key: T is trace of precipitation, MM is missing value
Source: NWS Daily Summary
Time(PST)TemperatureDew PointHumidity Pressure Visibility Wind DirectionWind SpeedGust SpeedPrecipitationEvents Conditions
12:03 AM 32.0°F 30.2°F 93% 30.56 in 10.0 miles SE 5.8 mph - N/A   Overcast
12:58 AM 30.6°F 30.0°F 98% 30.58 in 10.0 miles SSE 4.6 mph - N/A   Overcast
1:58 AM 30.7°F 30.4°F 99% 30.61 in 10.0 miles SSE 3.5 mph - N/A   Overcast
2:43 AM 30.2°F 30.2°F 100% 30.60 in 10.0 miles SE 3.5 mph - N/A   Overcast
2:58 AM 30.0°F 29.7°F 99% 30.63 in 10.0 miles SE 2.3 mph - N/A   Overcast
3:58 AM 30.6°F 29.8°F 97% 30.63 in 10.0 miles SE 3.5 mph - N/A   Overcast
4:13 AM 32.0°F 30.2°F 93% 30.61 in 10.0 miles East 1.2 mph - N/A   Overcast
4:43 AM 32.0°F 30.2°F 93% 30.61 in 10.0 miles SSE 4.6 mph - N/A   Overcast
4:58 AM 30.7°F 30.2°F 98% 30.63 in 10.0 miles SE 3.5 mph - N/A   Overcast
5:43 AM 32.0°F 32.0°F 100% 30.61 in 10.0 miles SE 2.3 mph - N/A   Overcast
5:58 AM 31.3°F 30.6°F 97% 30.64 in 10.0 miles SE 3.5 mph - N/A   Overcast
6:28 AM 32.0°F 32.0°F 100% 30.63 in 10.0 miles SE 2.3 mph - N/A   Overcast
6:41 AM 32.0°F 32.0°F 100% 30.63 in 10.0 miles SE 3.5 mph - N/A   Overcast
6:58 AM 31.3°F 30.6°F 97% 30.66 in 10.0 miles SE 3.5 mph - N/A   Overcast
7:28 AM 32.0°F 32.0°F 100% 30.65 in 10.0 miles SE 2.3 mph - N/A   Overcast
7:38 AM 32.0°F 32.0°F 100% 30.65 in 10.0 miles Calm Calm - N/A   Overcast
7:48 AM 32.0°F 32.0°F 100% 30.65 in 10.0 miles SSE 2.3 mph - N/A   Overcast
7:58 AM 31.3°F 30.2°F 96% 30.68 in 10.0 miles SSE 3.5 mph - N/A   Overcast
8:58 AM 32.0°F 30.7°F 95% 30.71 in 10.0 miles Calm Calm - N/A   Overcast
9:03 AM 32.0°F 32.0°F 100% 30.68 in 10.0 miles East 1.2 mph - N/A   Overcast
9:58 AM 33.6°F 31.5°F 92% 30.71 in 10.0 miles SE 3.5 mph - N/A   Overcast
10:30 AM 35.6°F 32.0°F 87% 30.68 in 10.0 miles Calm Calm - N/A   Overcast
10:41 AM 35.6°F 32.0°F 87% 30.68 in 10.0 miles Variable 1.2 mph - N/A   Overcast
10:58 AM 37.2°F 33.3°F 86% 30.70 in 10.0 miles Calm Calm - N/A   Scattered Clouds
11:58 AM 40.5°F 34.2°F 78% 30.70 in 10.0 miles NW 6.9 mph - N/A   Partly Cloudy
12:09 PM 41.0°F 33.8°F 76% 30.67 in 10.0 miles NW 8.1 mph - N/A   Mostly Cloudy
12:19 PM 39.2°F 33.8°F 81% 30.67 in 10.0 miles NW 5.8 mph - N/A   Scattered Clouds
12:58 PM 41.9°F 32.7°F 70% 30.69 in 10.0 miles NW 6.9 mph - N/A   Clear
1:58 PM 42.6°F 32.7°F 68% 30.68 in 10.0 miles NW 10.4 mph - N/A   Clear
2:55 PM 42.8°F 32.0°F 66% 30.69 in 10.0 miles Calm Calm - N/A   Clear
3:58 PM 41.7°F 31.3°F 66% 30.69 in 10.0 miles NNW 5.8 mph - N/A   Clear
4:58 PM 39.4°F 30.0°F 69% 30.69 in 10.0 miles NNW 5.8 mph - N/A   Clear
5:58 PM 35.8°F 30.0°F 80% 30.69 in 10.0 miles Calm Calm - N/A   Clear
6:58 PM 34.2°F 29.7°F 84% 30.69 in 10.0 miles Calm Calm - N/A   Clear
7:58 PM 30.2°F 28.6°F 94% 30.69 in 10.0 miles NNW 2.3 mph - N/A   Clear
8:58 PM 28.2°F 27.5°F 97% 30.70 in 10.0 miles NNW 2.3 mph - N/A   Clear
9:58 PM 27.5°F 27.0°F 98% 30.69 in 10.0 miles NNW 2.3 mph - N/A   Clear
10:58 PM 25.9°F 25.0°F 96% 30.69 in 10.0 miles NNW 4.6 mph - N/A   Clear
11:58 PM 25.9°F 25.2°F 97% 30.69 in 10.0 miles NNW 3.5 mph - N/A   Clear
Moon Phase
Jan. 15 Jan. 18 Jan. 26 Feb. 03 Feb. 10
Sunrise:07:51 AM (PST) Moon Rise:09:39 AM (PST)1/15
Sunset:04:48 PM (PST) Moon Set:10:07 PM (PST)1/15

Copyright © 2014 The Weather Underground, Inc.